This is the latest recevied weather packets stored in our database for station/object OH6HPS. If no packets are shown the sender has not sent any weather packets the latest 10 day(s).
| Time | Temp. | Humidity | Pressure | Rain* | Wind** | Luminosity | Snow |
|---|---|---|---|---|---|---|---|
| 1788206662 | 16.11° C | 94% | 1006.5 hPa | 0 mm | - | 0 W/m² | - |
| 1788206061 | 16.11° C | 94% | 1006.5 hPa | 0 mm | - | 0 W/m² | - |
| 1788204860 | 16.67° C | 94% | 1006.5 hPa | 0 mm | - | 0 W/m² | - |
| 1788204260 | 16.67° C | 94% | 1006.4 hPa | 0 mm | - | 0 W/m² | - |
| 1788203661 | 16.67° C | 94% | 1006.3 hPa | 0 mm | - | 0 W/m² | - |
| 1788203060 | 16.67° C | 94% | 1006.3 hPa | 0.25 mm | - | 0 W/m² | - |
| 1788202461 | 16.67° C | 94% | 1006.3 hPa | 0.51 mm | - | 0 W/m² | - |
| 1788201860 | 16.67° C | 94% | 1006.2 hPa | 0.51 mm | - | 0 W/m² | - |
| 1788201260 | 16.67° C | 94% | 1006.1 hPa | 0.51 mm | - | 0 W/m² | - |
| 1788200659 | 16.67° C | 94% | 1006 hPa | 0.51 mm | - | 0 W/m² | - |
| 1788200059 | 17.22° C | 94% | 1006.1 hPa | 0.51 mm | - | 0 W/m² | - |
| 1788199458 | 17.22° C | 94% | 1006.1 hPa | 0.25 mm | - | 0 W/m² | - |
| 1788198858 | 17.22° C | 94% | 1006 hPa | 0 mm | - | 0 W/m² | - |
| 1788198259 | 17.22° C | 94% | 1005.9 hPa | 0.51 mm | - | 0 W/m² | - |
| 1788197658 | 17.22° C | 94% | 1005.7 hPa | 0.76 mm | - | 0 W/m² | - |
| 1788197058 | 17.22° C | 94% | 1005.8 hPa | 1.02 mm | - | 0 W/m² | - |
| 1788196458 | 17.22° C | 94% | 1005.5 hPa | 1.02 mm | - | 0 W/m² | - |
| 1788195856 | 17.78° C | 93% | 1005.5 hPa | 1.02 mm | - | 11 W/m² | - |
| 1788195256 | 17.78° C | 93% | 1005.4 hPa | 1.02 mm | - | 7 W/m² | - |
| 1788194657 | 17.78° C | 92% | 1005.3 hPa | 0.51 mm | - | 0 W/m² | - |
| 1788194057 | 18.33° C | 92% | 1005.1 hPa | 0.25 mm | - | 5 W/m² | - |
| 1788193456 | 18.33° C | 92% | 1005 hPa | 0 mm | - | 5 W/m² | - |
| 1788192856 | 18.33° C | 92% | 1005 hPa | 0 mm | - | 12 W/m² | - |
| 1788192256 | 18.33° C | 91% | 1004.9 hPa | 0.25 mm | - | 19 W/m² | - |
| 1788191656 | 18.33° C | 91% | 1004.9 hPa | 0.25 mm | - | 16 W/m² | - |
* Rain latest hour (hover to see other rain measurements)
** Current wind speed in m/s (hover to see current wind gust speed)